Miscellaneous Local Product
Issued by NWS North Platte, NE

Home | Current Version | Previous Version | Text Only | Print | Product List | Glossary On
Versions: 1 2 3 4 5 6 7 8 9 10 11 12 13 14 15 16 17 18 19 20 21 22 23 24 25 26 27 28 29 30 31 32 33 34 35 36 37 38 39 40 41 42 43 44 45 46 47 48 49 50
865
AXUS43 KLBF 271610
MISLBF


WESTERN AND NORTH CENTRAL NEBRASKA HOURLY WEATHER ROUNDUP
NATIONAL WEATHER SERVICE NORTH PLATTE NE
1100 AM CDT THU JUL 27 2017

NOTE: "FAIR" INDICATES FEW OR NO CLOUDS BELOW 12,000 FEET WITH NO
SIGNIFICANT WEATHER AND/OR OBSTRUCTIONS TO VISIBILITY.

NOTE: STATIONS NOT REPORTING VARIABLES SUCH AS SKY/WEATHER OR
PRESSURE ARE PROVIDED BY RAWS AND APRS NETWORKS AND ARE NOT UNDER
NATIONAL WEATHER SERVICE QUALITY CONTROL.

...OBSERVATIONS IN AND NEAR THE EASTERN PANHANDLE OF NEBRASKA...

CITY           SKY/WX    TMP DP  RH WIND       PRES   REMARKS
PINE RIDGE     PTSUNNY   69  50  50 SE14G23   30.19S
GORDON         LGT RAIN  66  61  83 SW3       30.21S
CHADRON        CLOUDY    73  61  65 SE12      30.16R
ALLIANCE       CLOUDY    73  60  63 SE16      30.22R
SIDNEY         CLOUDY    72  64  76 SE13      30.24F
CRESCENT LAKE    N/A     68  61  78 E9G16       N/A
$$

...OBSERVATIONS IN NORTHERN NEBRASKA AND FAR SOUTHERN SOUTH DAKOTA...

CITY           SKY/WX    TMP DP  RH WIND       PRES   REMARKS
WINNER         FAIR      82  58  43 SE10      30.16S
VALENTINE      CLOUDY    76  55  48 S9        30.18F
THEDFORD       MOSUNNY   76  58  53 SE10      30.21S
AINSWORTH      CLOUDY    75  59  58 SE6       30.18F
O`NEILL        SUNNY     74  62  64 E7        30.17S
ORD            SUNNY     76  57  51 NE8       30.14S
BROKEN BOW     MOSUNNY   76  60  57 E10       30.18R
VALENTINE NWR    N/A     72  59  63 S6          N/A
HALSEY           N/A     75  57  54 E6          N/A
BUTTE            N/A     74  60  62 SE8         N/A
CHAMBERS         N/A     78  61  55 E3          N/A
EWING            N/A     75  65  71 NE3         N/A
$$

...OBSERVATIONS IN SOUTHWEST NEBRASKA AND FAR NORTHEAST COLORADO...

CITY           SKY/WX    TMP DP  RH WIND       PRES   REMARKS
HOLYOKE        CLOUDY    73  64  73 SE8       30.22F
IMPERIAL       CLOUDY    72  63  73 E10       30.21R
OGALLALA       CLOUDY    72  64  77 SE8       30.21S
NORTH PLATTE   PTSUNNY   74  60  61 SE6       30.20R
MCCOOK         PTSUNNY   77  66  68 E8        30.16F
LEXINGTON      CLOUDY    73  61  66 E6        30.17S
STAPLETON        N/A     75  57  54 CALM        N/A
GOTHENBURG       N/A     71  57  61 E6          N/A
CALLAWAY         N/A     75  63  66 E7          N/A
$$

...OBSERVATIONS IN CENTRAL LINCOLN COUNTY AREA...

CITY           SKY/WX    TMP DP  RH WIND       PRES   REMARKS
N.P. AIRPORT   PTSUNNY   74  60  61 SE6       30.20R
N.P. DOWNTOWN    N/A     76  61  59 CALM        N/A
N.P. SOUTHEAST   N/A     75  59  58 SE3         N/A
N.P. HILLCREST   N/A     76  60  57 SE5G18      N/A
$$

...SOME OBSERVATIONS FROM AROUND THE REGION...

CITY           SKY/WX    TMP DP  RH WIND       PRES   REMARKS
DENVER         MOSUNNY   74  60  61 VRB7      30.26R
LIMON          CLOUDY    70  64  81 SE12      30.28S
ASPEN          SUNNY     71  52  50 N7        30.40F
LARAMIE        SUNNY     68  54  60 VRB3      30.35S
CASPER         SUNNY     77  57  50 SW15      30.20S
CHEYENNE       PTSUNNY   70  59  68 S13       30.31S
SCOTTSBLUFF    CLOUDY    74  65  73 SE12      30.20S
GRAND ISLAND   MOSUNNY   75  64  68 NE8       30.13F
OMAHA          MOSUNNY   80  65  59 N9        30.07R
SIOUX FALLS    MOSUNNY   78  65  63 CALM      30.13R
PIERRE         SUNNY     81  54  39 SE8       30.12S
RAPID CITY     CLOUDY    77  62  59 S17G24    30.14F
BISMARCK       CLOUDY    77  60  55 S6        30.13F
KANSAS CITY    CLOUDY    77  74  90 N12       29.99F
HILL CITY      CLOUDY    79  68  69 E12       30.13F
WICHITA        PTSUNNY   85  75  72 NE14G21   29.98S HX  93
DODGE CITY     LGT RAIN  72  71  97 N10       30.11R
OKLAHOMA CITY  CLOUDY    87  65  47 W14       30.00R
DALLAS         MOSUNNY   90  69  50 SW10      30.02S HX  94
AMARILLO       CLOUDY    80  67  64 N8        30.19S
$$




USA.gov is the U.S. government's official web portal to all federal, state and local government web resources and services.